Login
Login

BEE-IX

Data Feeds Available:

RS Feed, Ping, MAC Address

Do you run this IX and want to help with feeds? Contact Us!

Toolbox

Filtering Options

List of members (38 routers over 38 ASNs):

  ASN Description IPv4 IPv6 Speed
UA AS210461 RUDAKI IXP Route Servers 2001:7f8:11f:be00::1 10 gbps
UA AS211509 Rudakov Ihor 2001:7f8:11f:be00::100 1000 mbps
UA AS48752 Volodymyr Chystiakov 2001:7f8:11f:be00:48:752:0:1 1000 mbps
US AS60900 Ssmidge LLC 2001:7f8:11f:be00:60:900:0:1 1000 mbps
HK AS7721 Qin Cloud Networks 2001:7f8:11f:be00:77:21:0:1 1000 mbps
PH AS197622 Edizon Palad 2001:7f8:11f:be00:197:622:0:1 1000 mbps
UA AS197710 Iryna Rudakova 2001:7f8:11f:be00:197:710:0:1 10 gbps
KR AS198055 Doyeon Kim 2001:7f8:11f:be00:198:55:0:1 1000 mbps
BR AS198057 Deivisson Gabriel Floriano trading as ... 2001:7f8:11f:be00:198:57:0:1 1000 mbps
CN AS198304 Pinjia Zhao 2001:7f8:11f:be00:198:304:0:1 1000 mbps
SI AS198923 Mitja Herbaj 2001:7f8:11f:be00:198:923:0:1 1000 mbps
CA AS199177 Tanyu Trifonov 2001:7f8:11f:be00:199:177:0:1 1000 mbps
NL AS199183 Arjen Olaf Essink 2001:7f8:11f:be00:199:183:0:1 1000 mbps
JP AS199266 REI MIMURA 2001:7f8:11f:be00:199:266:0:1 1000 mbps
CN AS199310 XIN BING XIAN 2001:7f8:11f:be00:199:310:0:1 1000 mbps
US AS199605 JsMsr NetWork, LLC 2001:7f8:11f:be00:199:605:0:1 1000 mbps
PH AS199676 John Leo Navarro 2001:7f8:11f:be00:199:676:0:1 1000 mbps
PL AS199763 Piotr Chrzanowski 2001:7f8:11f:be00:199:763:0:4 100 mbps
CA AS200351 Guanzhong Chen 2001:7f8:11f:be00:200:351:0:1 1000 mbps
PH AS200879 John Carlo Olideles 2001:7f8:11f:be00:200:879:0:1 10 gbps
UA AS202197 Volodymyr Chystiakov 2001:7f8:11f:be00:202:197:0:1 1000 mbps
GB AS202939 Chimon Technology Ltd 2001:7f8:11f:be00:202:939:0:1 1000 mbps
IT AS204508 Gatterer Manuel trading as MLGT 2001:7f8:11f:be00:204:508:0:1 1000 mbps
TW AS205329 Kai-Jung Chen 2001:7f8:11f:be00:205:329:0:1 1000 mbps
HR AS205432 William Weber 2001:7f8:11f:be00:205:431:0:1 10 gbps
UA AS207301 Roman Sartov 2001:7f8:11f:be00:207:301:0:1 1000 mbps
IT AS211358 Patrizio Palumbo 2001:7f8:11f:be00:211:358:0:1 10 gbps
GT AS211604 Mario Enrique Lopez Guzman 2001:7f8:11f:be00:211:604:0:1 1000 mbps
GB AS212121 James Ray 2001:7f8:11f:be00:212:121:0:1 1000 mbps
GB AS215527 Xero Networks LTD 2001:7f8:11f:be00:215:527:0:1 1000 mbps
DE AS215828 Tizian Maxime Weigt 2001:7f8:11f:be00:215:828:0:1 10 gbps
KZ AS215953 BERIK ASHIMOV 2001:7f8:11f:be00:215:953:0:1 1000 mbps
GB AS216324 Hyper Group Network Ltd. 2001:7f8:11f:be00:216:324:0:1 1000 mbps
IN AS216452 Edvin Basil Samuval 2001:7f8:11f:be00:216:452:0:1 1000 mbps
MV AS216469 Ismail Fayaz trading as PIONEN 2001:7f8:11f:be00:216:469:0:1 1000 mbps
US AS44324 MoeDove LLC 2001:7f8:11f:be00:443:24:0:1 1000 mbps
CN AS200078 Gao Yijia 2001:7f8:11f:be00:2000:78:0:1 1000 mbps
CN AS216056 Jingqiu Xu 2001:7f8:11f:be00:2160:65:0:1 1000 mbps